Regional Weather Roundup
Issued by NWS

Home | Current Version | Previous Version | Text Only | Print | Product List | Glossary Off
Versions: 1 2 3 4 5 6 7 8 9 10 11 12 13 14 15 16 17 18 19 20 21 22 23 24 25 26 27 28 29 30 31 32 33 34 35 36 37 38 39 40 41 42 43 44 45 46 47 48 49 50

000
ASUS45 KSLC 271610
RWRUT

UTAH REGIONAL WEATHER ROUNDUP
NATIONAL WEATHER SERVICE SALT LAKE CITY UT
1000 AM MDT SUN JUL 27 2014

UTZ001>011-023>025-271700-

NORTHERN UTAH

CITY           SKY/WX    TMP DP  RH WIND       PRES   REMARKS
HILL AFB       SUNNY     75  38  25 E20G29    30.23R
LOGAN          SUNNY     72  40  31 N3        30.25S
OGDEN          SUNNY     80  38  22 W6        30.20S
PROVO AIRPORT  MOSUNNY   79  48  34 S3        30.24R
SALT LAKE CITY MOSUNNY   85  38  18 E3        30.18R
VERNAL         MOSUNNY   80  39  23 SE6       30.31R
WENDOVER       MOSUNNY   84  28  13 SE6       30.20R
HEBER CITY     MOSUNNY   70  43  37 CALM      30.34R
WEST JORDAN    SUNNY     84  57  39 SE6       30.22R

$$

UTZ012>022-026-027-271700-

SOUTHERN UTAH

CITY           SKY/WX    TMP DP  RH WIND       PRES   REMARKS
BRYCE CANYON   PTSUNNY   67  46  47 CALM      30.46S
CEDAR CITY     MOSUNNY   72  48  42 CALM      30.29R
MILFORD        SUNNY     78  51  38 S10       30.24S
MOAB/CYNLANDS  SUNNY     85  48  27 E9        30.19S
PRICE          PTSUNNY   83  42  23 E7        30.32R
ST GEORGE      MOSUNNY   84  55  37 CALM      30.13S
KANAB            N/A     79  46  31 NW3       30.29S

$$

REGIONAL REPORTS     COLORADO/ARIZONA

CITY           SKY/WX    TMP DP  RH WIND       PRES   REMARKS
CRAIG, CO      PTSUNNY   62  53  72 N3        30.41R
GRAND JUNCTION MOSUNNY   81  48  31 E14       30.26S
RIFLE          PTSUNNY   72  51  47 VRB5      30.34F
MONTROSE       MOSUNNY   78  49  35 SE7       30.35S
CORTEZ         SUNNY     81  49  32 E3        30.35F
PAGE, AZ       MOSUNNY   86  48  26 S3        30.21R
GRAND CANYON   SUNNY     78  48  34 S6        30.39R
KINGMAN        PTSUNNY   85  58  39 W17       30.17R
FLAGSTAFF      SUNNY     70  52  52 SW15G23   30.45R

$$

REGIONAL REPORTS    NEVADA/IDAHO/WYOMING

CITY           SKY/WX    TMP DP  RH WIND       PRES   REMARKS
LAS VEGAS, NV  PTSUNNY   95  53  24 CALM      29.98R HX  92
ELY            CLOUDY    73  41  31 SW6       30.34S
ELKO           CLOUDY    74  29  19 CALM      30.24R
POCATELLO, ID  SUNNY     71  36  27 CALM      30.26S
BURLEY         SUNNY     72  44  36 NE9       30.21S
EVANSTON, WY   SUNNY     71  30  21 E12       30.44S
ROCK SPRINGS   SUNNY     73  35  25 NE13      30.44S

$$



USA.gov is the U.S. government's official web portal to all federal, state and local government web resources and services.